Temperature
21 22 21 20 19 18 17 17 17 17 16 16 16 16 16 15 15 15 15 15 14 14 15 15 15 15 15 15 15 15 15 15 15 15 15 15 15 14 14 14 13 14 14
23 22 21 20 19 18 17 17 17 16 16 16 16 16 15 15 15 15 15 15 15 14 14 14 14 14 15 15 15 15 15 15 15 14 14 14 15 14 14 14 14 14 14
22 22 21 20 18 18 17 17 16 16 16 16 16 15 15 15 15 15 15 15 15 14 14 14 14 14 15 15 15 15 15 14 14 13 13 14 14 14 14 14 14 14 14
21 22 21 20 18 17 17 16 16 16 16 16 15 15 15 15 15 15 15 15 15 14 14 14 14 15 15 15 15 15 14 14 13 13 13 13 14 14 14 14 14 14 14
20 21 21 19 18 17 17 16 16 16 16 16 15 15 16 15 15 15 15 15 15 14 14 14 14 15 15 15 15 14 14 13 13 13 13 13 14 14 14 14 14 14 14
18 19 20 19 17 17 16 16 16 16 16 16 16 16 16 16 15 15 15 15 14 14 14 14 14 14 15 15 14 14 13 13 13 13 13 13 13 13 13 13 13 13 13
17 18 19 18 17 16 16 16 16 16 16 16 16 16 16 16 16 15 15 14 14 14 14 14 14 14 14 14 14 14 13 13 13 13 13 13 13 13 13 13 13 13 13
17 18 18 17 16 16 16 16 16 16 16 17 17 17 17 16 16 16 15 15 14 14 14 14 14 14 14 14 14 14 13 13 13 12 13 13 13 13 13 13 13 13 13
17 17 18 17 16 16 16 16 16 16 16 17 17 17 17 17 16 16 15 15 15 14 15 14 14 15 14 14 14 14 13 13 12 12 13 13 13 13 13 13 13 13 13
17 17 17 16 16 16 16 16 16 16 16 16 17 17 17 17 16 16 15 15 15 15 15 15 15 15 15 14 14 14 13 13 12 12 13 13 13 13 13 13 13 13 13
17 16 16 16 16 16 16 16 16 16 16 17 17 17 17 17 16 16 16 16 15 15 15 15 15 15 15 14 14 14 14 13 12 12 13 13 13 13 13 13 13 13 13
17 16 16 16 15 15 15 16 16 16 17 17 17 17 17 17 16 16 16 16 16 16 15 15 15 15 15 15 14 14 14 13 13 13 13 13 13 13 13 13 13 13 13
16 16 16 16 15 15 15 15 16 16 16 17 17 17 16 15 15 16 16 16 16 16 16 15 15 15 15 14 14 14 13 13 12 13 13 13 13 13 13 13 13 13 13
16 16 16 15 15 15 15 15 15 15 16 16 16 16 16 15 15 15 16 16 16 16 16 16 15 15 15 14 14 14 13 13 12 13 13 13 13 13 13 13 13 12 12
16 15 15 15 15 15 15 15 15 15 15 15 15 15 15 15 15 15 15 15 16 16 16 15 15 14 14 14 13 13 13 13 12 12 13 13 13 12 12 12 12 12 12
16 15 15 15 15 15 15 15 15 15 15 15 15 15 15 15 15 15 15 14 15 15 14 15 15 14 13 13 13 13 13 13 12 12 13 13 13 13 12 12 12 12 12
16 16 15 15 15 15 15 15 15 15 15 15 15 15 15 15 15 15 15 14 14 14 14 14 14 13 13 13 13 13 13 13 12 12 12 12 12 12 12 12 12 12 12
16 16 15 15 15 15 15 15 15 15 15 15 15 15 15 15 15 15 15 14 14 14 14 13 13 13 13 13 13 13 13 12 12 12 12 12 12 12 12 12 12 12 11
16 16 16 16 15 15 15 15 15 15 15 15 15 15 15 15 15 15 14 14 14 13 13 13 13 13 13 13 13 12 12 12 12 12 11 11 12 12 12 12 12 11 11
17 16 16 16 16 16 15 15 15 16 16 16 16 15 15 15 15 14 14 14 14 13 13 13 13 12 12 12 12 12 12 12 12 12 12 11 11 11 12 12 12 11 11
16 16 16 16 16 16 15 15 15 16 16 16 16 16 16 15 15 14 14 14 13 13 13 12 12 12 12 12 11 11 11 11 11 12 11 11 11 11 11 11 11 11 11
16 16 16 16 16 16 15 15 15 15 16 16 16 16 16 16 15 14 14 14 13 13 12 12 12 12 12 11 11 11 10 11 11 11 11 11 11 11 11 11 11 11 11
15 15 15 15 15 16 16 15 15 15 15 15 15 15 16 15 15 14 14 13 13 13 12 12 12 12 12 11 11 11 11 11 11 11 11 11 11 11 10 10 10 10 10
14 14 14 15 15 15 15 15 15 15 14 15 15 14 14 14 14 14 14 13 13 12 12 12 12 12 11 11 11 11 11 11 11 11 10 10 10 10 10 9 9 9 9
12 13 13 14 14 14 14 14 14 14 14 14 14 14 14 14 13 13 13 13 12 12 12 12 12 11 11 11 11 11 10 10 10 10 10 10 10 9 9 8 8 8 8
12 12 12 12 13 13 13 13 13 13 13 13 13 13 13 13 13 13 13 12 12 12 12 11 11 11 11 11 11 11 11 10 10 10 10 10 10 9 8 8 7 7 7
Wind_Speed
13 18 22 20 19 18 17 17 16 15 15 14 14 13 12 12 11 11 10 10 10 10 11 13 14 15 15 15 14 14 14 14 14 14 15 14 13 13 13 14 13 13 14
17 21 22 21 20 19 18 17 16 15 15 14 13 13 12 10 9 9 8 8 9 10 12 13 15 15 15 14 14 13 12 11 11 11 14 14 12 12 13 14 14 11 12
18 21 21 21 20 19 18 17 16 16 15 14 13 12 10 9 8 8 8 8 9 11 12 15 15 15 14 14 13 12 11 8 6 5 5 11 12 11 12 12 12 11 11
17 20 20 21 20 20 19 18 16 15 14 13 12 11 9 8 8 7 8 10 11 12 14 15 15 14 13 13 12 11 8 5 2 2 4 12 12 11 11 12 13 12 12
15 18 21 21 20 20 19 18 16 15 14 13 12 10 9 8 8 9 10 11 12 13 14 15 15 14 13 12 11 9 5 3 5 6 14 15 13 12 12 13 14 14 14
14 18 21 20 20 20 19 18 16 15 14 13 12 10 9 9 10 11 11 12 13 13 14 14 14 12 12 11 9 6 3 4 7 10 15 15 13 13 14 14 15 15 16
15 19 20 20 20 20 19 18 16 15 14 13 11 10 10 10 11 12 12 12 13 13 14 13 12 11 10 9 8 4 3 6 3 14 16 16 15 14 15 15 15 16 17
15 17 18 19 20 20 19 18 16 15 14 12 11 10 10 11 11 11 12 12 12 13 13 12 11 10 9 8 6 3 4 7 7 14 16 15 14 14 15 16 16 15 16
14 14 15 16 18 20 19 18 17 16 14 12 11 11 11 11 11 11 11 11 12 12 12 12 11 9 8 7 5 2 2 5 5 10 14 13 13 13 14 14 14 14 14
13 13 11 14 15 15 16 17 17 16 15 13 12 12 13 12 11 10 10 11 12 12 12 11 10 9 7 6 5 2 2 5 0 11 14 13 12 12 12 12 13 13 13
11 11 11 11 13 15 15 15 16 16 15 14 13 14 14 12 11 10 11 12 12 12 11 10 9 9 8 7 5 4 5 7 3 13 14 13 11 11 11 11 11 12 12
7 9 10 10 9 12 13 15 14 13 14 13 13 14 12 13 13 12 15 13 12 11 11 10 9 9 8 8 8 7 8 8 7 13 14 13 11 10 10 10 11 11 11
5 5 6 8 8 8 8 12 10 11 13 13 15 16 14 11 12 13 12 12 11 11 10 10 10 10 11 11 11 11 10 5 6 13 15 14 11 10 10 10 10 9 10
8 6 4 4 5 6 8 7 8 8 9 10 13 17 13 7 8 10 10 12 12 12 11 12 10 12 12 10 11 11 7 2 6 13 15 15 13 11 10 9 9 9 9
10 9 7 5 5 5 5 4 6 6 8 10 11 14 13 7 5 7 8 12 13 13 12 10 10 9 8 8 8 6 6 6 7 13 14 15 14 13 11 10 9 9 9
9 9 9 8 6 5 4 4 4 5 8 9 10 11 13 10 8 6 5 7 10 12 12 11 9 6 5 5 5 5 5 5 6 13 16 16 15 14 12 11 10 9 9
8 9 10 10 8 7 6 5 4 5 7 6 9 13 14 13 11 8 4 4 8 11 10 10 9 6 4 4 4 5 6 7 7 11 16 16 15 15 14 13 12 11 9
6 8 9 10 10 9 7 5 4 5 6 6 9 12 14 15 13 9 4 5 10 11 8 4 4 4 4 4 4 3 3 4 6 9 14 17 17 15 15 14 13 12 11
5 7 8 9 10 10 9 6 5 5 5 6 8 9 12 15 15 10 6 6 10 7 5 5 5 5 5 5 5 4 4 4 4 6 8 14 17 18 17 15 14 14 13
3 3 5 7 9 9 8 7 5 6 5 5 6 7 10 12 14 12 7 8 9 5 6 6 6 6 5 6 5 4 4 5 4 4 5 9 14 18 19 17 16 14 14
1 1 2 3 5 6 6 6 6 7 7 6 6 9 10 11 12 11 6 7 7 7 8 8 6 7 6 5 4 2 3 3 5 5 5 5 8 14 17 19 18 16 15
1 1 2 2 2 2 3 5 5 5 6 7 6 8 12 12 11 9 8 8 8 7 8 9 8 6 6 6 5 3 3 4 6 7 6 6 6 10 12 16 18 18 17
3 3 3 3 2 2 2 1 2 3 3 4 6 7 9 12 12 11 9 7 8 9 8 9 9 10 8 7 6 5 5 7 4 4 7 6 6 5 6 10 14 16 17
3 4 4 4 4 3 2 1 2 3 4 5 5 5 7 10 11 13 11 9 9 8 9 9 10 9 8 7 6 5 4 3 4 3 2 4 5 5 5 5 8 12 14
4 3 4 4 4 4 4 3 2 3 4 3 3 5 6 7 8 10 11 9 10 9 10 10 10 10 10 9 7 5 6 4 2 4 3 3 3 3 3 3 5 8 11
4 3 3 3 3 4 4 4 3 4 4 4 5 5 5 4 5 7 8 9 10 10 10 11 10 11 11 10 9 7 6 5 6 5 4 3 4 2 1 2 2 5 8
Wind_Direction
129 140 148 145 143 142 139 139 138 136 133 129 124 118 113 108 104 102 99 98 97 97 99 97 94 90 86 83 83 83 82 83 85 85 81 76 74 71 60 56 75 70 67
132 141 147 144 144 142 139 136 133 131 129 127 122 117 112 107 104 102 101 104 105 102 103 101 97 92 88 86 85 85 87 92 98 101 98 86 75 70 64 61 66 68 67
131 141 146 143 144 142 138 134 131 130 128 125 122 117 111 108 107 104 105 112 110 107 107 105 98 94 90 88 87 87 90 96 98 105 117 104 86 73 70 67 68 68 65
132 143 146 143 144 143 138 136 134 131 128 124 121 116 113 112 109 107 109 116 111 108 109 107 101 97 93 90 89 90 92 88 54 345 89 97 84 77 75 72 70 67 65
133 144 140 142 144 141 139 137 135 132 128 124 120 117 116 113 109 109 111 114 112 109 111 110 106 101 96 94 91 91 85 39 7 44 77 82 80 78 76 73 70 68 67
135 133 139 141 143 141 140 139 137 134 130 126 123 120 119 116 111 108 111 115 115 113 115 115 110 105 101 98 95 89 54 6 344 73 79 80 80 80 79 76 73 72 69
131 129 142 140 143 143 142 141 140 137 133 130 128 125 124 121 114 111 112 117 121 120 120 119 115 110 105 101 98 80 17 351 41 84 81 79 80 81 80 78 75 74 72
123 128 140 142 144 145 145 144 142 140 138 137 135 129 124 121 118 118 116 120 125 125 125 124 120 116 110 107 101 75 4 353 57 96 92 87 85 84 83 81 78 77 74
122 128 138 145 146 148 147 146 145 144 143 142 139 132 126 123 122 123 122 125 130 130 128 128 126 124 120 116 112 96 349 345 33 98 100 95 92 89 88 85 82 81 78
125 134 144 149 150 149 149 150 150 149 148 146 140 133 130 129 130 132 131 131 134 134 133 134 134 133 131 131 134 152 269 296 309 105 105 103 101 97 94 90 87 84 82
132 139 147 152 156 157 157 154 151 153 154 150 146 146 147 152 152 153 141 135 138 140 143 145 145 145 147 151 162 193 246 266 113 109 112 114 110 107 104 99 96 92 88
132 140 152 156 158 161 157 154 161 163 162 168 164 165 180 183 169 158 145 145 149 151 154 157 158 164 173 176 184 206 239 245 146 122 126 127 122 119 114 110 106 101 96
153 143 152 156 156 156 146 160 171 172 171 190 179 178 200 188 149 140 147 151 157 163 169 167 174 197 210 194 182 205 231 229 142 129 137 136 135 133 128 122 118 113 107
174 171 164 160 157 159 156 169 171 173 172 188 188 181 195 175 157 161 165 172 178 187 189 178 197 215 217 194 185 201 201 186 116 127 142 144 146 146 142 137 134 128 121
176 174 176 180 180 177 168 173 179 178 176 185 188 186 187 170 170 180 182 177 184 190 189 189 207 208 199 198 202 197 170 176 143 134 147 152 154 157 156 153 151 145 137
174 174 176 187 196 192 190 178 186 188 180 184 180 192 193 184 185 186 188 181 187 192 184 191 208 202 187 192 192 184 172 174 159 143 152 159 163 166 168 169 166 160 153
179 178 180 187 192 197 206 196 197 201 191 192 186 195 200 198 193 190 187 183 191 196 191 190 206 202 183 181 190 188 184 185 178 156 157 163 168 174 177 180 177 173 167
180 184 185 189 191 196 200 198 202 215 210 201 197 196 202 205 199 193 190 196 195 195 194 185 195 188 182 176 186 200 182 175 184 178 168 167 171 177 183 187 184 182 178
191 192 190 186 189 194 194 192 200 214 224 219 211 204 204 207 206 198 196 203 201 196 191 189 189 182 182 186 193 196 192 181 197 194 178 173 173 176 180 187 185 184 183
191 207 198 193 192 192 191 193 194 205 219 226 228 223 215 210 208 205 201 207 205 198 198 192 190 191 186 182 188 190 199 191 191 197 198 185 174 172 175 178 178 181 185
144 245 246 222 205 193 190 192 195 205 211 217 224 232 232 227 217 209 203 204 207 207 201 195 188 196 201 172 156 196 241 216 205 205 201 191 179 176 174 175 178 181 186
50 275 269 259 245 228 202 199 200 203 209 212 213 223 228 232 233 225 212 209 209 213 208 202 195 190 196 179 160 147 216 249 246 217 201 202 192 182 181 179 180 179 183
44 16 351 336 319 287 271 238 227 206 208 210 215 217 219 223 227 229 226 220 215 214 218 213 203 196 201 199 183 170 181 212 217 224 212 201 192 182 184 183 182 179 177
55 23 358 341 335 333 328 287 251 232 227 226 224 222 218 216 221 223 223 221 222 221 221 219 214 208 196 203 212 221 212 171 168 202 247 212 194 188 184 187 184 179 175
69 38 3 350 348 347 344 329 287 269 260 265 263 253 242 229 222 221 220 219 223 225 225 222 219 216 210 205 199 199 222 236 207 165 202 222 216 206 182 173 173 172 173
77 50 11 359 3 4 353 340 320 295 289 291 286 278 269 257 240 229 224 222 223 224 225 224 223 221 218 214 209 199 190 196 203 193 187 184 202 212 156 121 146 159 164
Height
1515 1517 1520 1523 1526 1529 1532 1534 1537 1539 1541 1542 1543 1544 1545 1546 1546 1546 1547 1547 1548 1549 1549 1550 1550 1551 1551 1552 1552 1552 1553 1554 1555 1555 1556 1556 1557 1557 1558 1558 1559 1559 1559
1513 1517 1520 1523 1526 1529 1532 1535 1537 1540 1541 1543 1544 1545 1545 1546 1546 1547 1547 1548 1549 1550 1551 1551 1552 1552 1552 1553 1553 1554 1555 1556 1556 1557 1558 1558 1559 1559 1560 1560 1560 1561 1561
1513 1517 1521 1524 1527 1530 1533 1535 1538 1540 1542 1543 1544 1545 1546 1546 1546 1547 1547 1548 1550 1551 1552 1553 1554 1554 1554 1554 1555 1555 1557 1558 1559 1559 1560 1561 1561 1561 1562 1562 1562 1562 1562
1514 1517 1521 1524 1527 1530 1533 1536 1538 1541 1542 1544 1545 1545 1546 1546 1546 1547 1548 1549 1551 1552 1554 1555 1555 1556 1556 1556 1557 1558 1559 1560 1561 1562 1563 1563 1563 1563 1563 1563 1563 1564 1564
1514 1518 1521 1525 1528 1531 1534 1536 1539 1541 1542 1544 1545 1545 1546 1546 1547 1548 1549 1551 1552 1554 1555 1556 1557 1558 1558 1558 1559 1560 1561 1562 1563 1564 1564 1565 1565 1565 1565 1565 1565 1565 1565
1515 1518 1522 1525 1528 1531 1534 1537 1539 1541 1542 1544 1545 1545 1546 1547 1548 1549 1550 1552 1554 1555 1557 1558 1559 1559 1560 1560 1561 1562 1563 1564 1564 1565 1566 1566 1566 1566 1566 1566 1566 1566 1566
1517 1518 1523 1526 1529 1532 1535 1537 1539 1541 1542 1544 1545 1546 1547 1548 1549 1550 1551 1553 1555 1556 1558 1559 1560 1560 1561 1562 1563 1564 1565 1566 1566 1567 1567 1567 1567 1567 1567 1567 1567 1567 1567
1517 1519 1523 1526 1530 1533 1535 1538 1539 1541 1542 1544 1545 1546 1547 1548 1550 1551 1552 1554 1555 1557 1559 1560 1561 1562 1563 1563 1564 1565 1566 1567 1568 1568 1568 1568 1568 1568 1568 1568 1568 1568 1567
1518 1520 1523 1526 1530 1533 1536 1538 1540 1541 1542 1544 1545 1546 1548 1549 1550 1552 1553 1554 1556 1558 1559 1560 1561 1562 1563 1564 1565 1566 1567 1568 1569 1569 1568 1569 1569 1569 1568 1568 1568 1567 1567
1519 1521 1524 1527 1530 1533 1535 1538 1539 1541 1542 1544 1545 1546 1548 1549 1551 1552 1553 1555 1556 1558 1559 1561 1562 1563 1564 1565 1566 1567 1568 1569 1569 1569 1569 1569 1569 1569 1568 1568 1568 1567 1567
1521 1522 1525 1527 1530 1533 1535 1537 1539 1540 1542 1543 1545 1547 1548 1549 1551 1552 1553 1555 1556 1558 1559 1561 1562 1563 1564 1565 1566 1567 1568 1569 1570 1569 1569 1569 1569 1568 1568 1568 1568 1567 1566
1521 1523 1525 1528 1530 1533 1534 1536 1538 1540 1541 1543 1544 1546 1548 1549 1550 1551 1553 1555 1556 1557 1559 1560 1561 1563 1564 1565 1566 1567 1568 1569 1569 1568 1569 1569 1568 1568 1568 1567 1567 1566 1566
1520 1523 1525 1528 1530 1532 1534 1535 1537 1538 1540 1542 1543 1546 1547 1549 1550 1551 1552 1554 1555 1556 1558 1559 1560 1562 1562 1563 1565 1566 1567 1568 1568 1567 1568 1568 1567 1567 1567 1566 1566 1566 1565
1519 1521 1524 1527 1529 1531 1533 1535 1536 1538 1539 1541 1542 1544 1546 1548 1549 1550 1551 1552 1554 1555 1556 1558 1559 1560 1561 1562 1564 1565 1566 1567 1567 1565 1566 1566 1566 1566 1566 1565 1565 1565 1565
1517 1519 1522 1525 1527 1530 1532 1534 1535 1537 1538 1540 1542 1543 1545 1547 1548 1549 1550 1550 1552 1553 1554 1556 1557 1558 1560 1561 1562 1563 1564 1564 1565 1563 1564 1564 1564 1564 1564 1564 1564 1564 1564
1515 1518 1520 1522 1524 1527 1530 1532 1534 1536 1537 1539 1540 1542 1543 1544 1546 1547 1548 1549 1550 1551 1553 1554 1555 1557 1558 1559 1560 1561 1561 1562 1562 1561 1561 1561 1562 1562 1562 1562 1562 1562 1562
1513 1516 1517 1519 1522 1524 1527 1529 1531 1533 1535 1537 1538 1539 1541 1542 1543 1545 1546 1547 1548 1550 1551 1552 1553 1554 1555 1556 1557 1557 1558 1559 1559 1559 1558 1558 1559 1559 1559 1559 1560 1560 1560
1511 1514 1515 1517 1519 1522 1524 1526 1528 1530 1532 1534 1535 1536 1538 1539 1541 1542 1543 1544 1545 1546 1548 1549 1550 1551 1552 1552 1553 1554 1555 1555 1555 1556 1555 1555 1555 1556 1556 1557 1557 1557 1558
1509 1511 1513 1515 1517 1519 1521 1523 1525 1527 1529 1530 1532 1533 1535 1536 1537 1538 1539 1540 1542 1543 1544 1545 1546 1547 1548 1548 1549 1550 1551 1551 1552 1552 1552 1551 1551 1551 1552 1553 1554 1554 1554
1506 1508 1510 1512 1514 1516 1518 1520 1521 1523 1525 1526 1528 1530 1531 1532 1533 1534 1535 1536 1538 1539 1539 1540 1541 1542 1543 1544 1545 1546 1546 1547 1547 1547 1548 1548 1547 1547 1548 1549 1549 1550 1551
1503 1505 1507 1509 1511 1513 1514 1516 1517 1518 1520 1522 1524 1525 1526 1528 1529 1530 1530 1531 1532 1533 1534 1536 1537 1537 1538 1540 1541 1541 1541 1541 1541 1542 1543 1543 1543 1543 1543 1544 1544 1545 1546
1499 1501 1503 1505 1507 1509 1510 1512 1513 1514 1515 1517 1518 1520 1521 1522 1523 1524 1525 1526 1527 1528 1529 1530 1531 1532 1533 1535 1535 1535 1536 1536 1534 1534 1535 1537 1537 1538 1538 1538 1539 1539 1540
1495 1497 1499 1501 1503 1504 1506 1507 1509 1510 1511 1512 1513 1514 1515 1516 1517 1518 1520 1521 1522 1523 1523 1524 1525 1526 1527 1528 1529 1530 1529 1527 1527 1528 1528 1529 1530 1531 1532 1533 1533 1533 1534
1491 1493 1494 1496 1498 1499 1501 1502 1503 1504 1505 1507 1508 1509 1510 1510 1511 1512 1513 1514 1515 1516 1517 1518 1519 1520 1520 1520 1521 1522 1523 1523 1523 1521 1522 1522 1523 1524 1525 1526 1527 1528 1528
1488 1489 1490 1492 1493 1495 1496 1497 1498 1499 1500 1501 1503 1503 1504 1505 1505 1506 1506 1507 1508 1509 1510 1511 1512 1513 1513 1513 1513 1514 1516 1517 1517 1516 1515 1516 1517 1517 1519 1520 1521 1521 1522
1486 1486 1487 1488 1489 1490 1491 1492 1493 1494 1495 1496 1497 1497 1498 1499 1499 1500 1500 1500 1501 1501 1502 1504 1505 1505 1506 1506 1506 1506 1507 1508 1509 1510 1509 1509 1510 1511 1512 1513 1513 1514 1515